Regional Weather Roundup
Issued by NWS

Home | Current Version | Previous Version | Graphics & Text | Print | Product List | Glossary On
Versions: 1 2 3 4 5 6 7 8 9 10 11 12 13 14 15 16 17 18 19 20 21 22 23 24 25 26 27
000
ASUS45 KSLC 250110
RWRUT

UTAH REGIONAL WEATHER ROUNDUP
NATIONAL WEATHER SERVICE SALT LAKE CITY UT
700 PM MDT TUE MAY 24 2016

UTZ001>011-023>025-250200-

NORTHERN UTAH

CITY           SKY/WX    TMP DP  RH WIND       PRES   REMARKS
BRIGHAM CITY     N/A     62  32  33 SW6       29.88S
HILL AFB       MOSUNNY   58  40  51 E6        29.90S
LOGAN          PTSUNNY   58  41  53 NW10      29.88R
OGDEN          PTSUNNY   60  37  42 SE7       29.89R
PROVO AIRPORT  MOSUNNY   63  34  34 VRB5      29.88F
SALT LAKE CITY PTSUNNY   62  38  40 E8        29.88F
VERNAL         CLOUDY    62  27  26 W15G28    29.85F
WENDOVER       PTSUNNY   57  36  44 NW14      29.88F
HEBER CITY     PTSUNNY   52  34  50 E8        29.92S
WEST JORDAN    SUNNY     57  41  54 NE5       29.90F

$$

UTZ012>022-026-027-250200-

SOUTHERN/CENTRAL UTAH

CITY           SKY/WX    TMP DP  RH WIND       PRES   REMARKS
BLANDING       MOSUNNY   67  18  15 SW17G23   29.98S
BRYCE CANYON   MOSUNNY   52  25  35 W21G28    30.02R
CEDAR CITY     MOSUNNY   60  19  20 SW15G28   29.92R
DELTA          CLOUDY    50  39  66 MISG      29.94R
HANKSVILLE     MOSUNNY   73  23  15 SW21G31   29.85S
MILFORD        PTSUNNY   65  24  21 S13G22    29.87F
MOAB/CYNLANDS  MOSUNNY   73  18  12 SW18G29   29.79S
PRICE          MOSUNNY   58  25  28 NW7       29.92R
ST GEORGE      MOCLDY    75  25  15 SW18G29   29.86R

$$

REGIONAL REPORTS     COLORADO/ARIZONA

CITY           SKY/WX    TMP DP  RH WIND       PRES   REMARKS
CRAIG, CO      CLOUDY    64  22  20 SW17G23   29.85R
GRAND JUNCTION SUNNY     71  18  13 W13       29.82R
RIFLE          SUNNY     71  14  11 W17G32    29.83R
MONTROSE       SUNNY     72  12  10 SW17G32   29.89R
CORTEZ         SUNNY     70  15  12 SW18G30   29.94S
PAGE, AZ       SUNNY     75  14  10 SW13G25   29.83R
GRAND CANYON   SUNNY     62  12  14 SW21G33   30.02R
KINGMAN        SUNNY     72  25  17 SW17G24   29.92S
FLAGSTAFF      SUNNY     57  23  26 S16G33    30.06S

$$

REGIONAL REPORTS    NEVADA/IDAHO/WYOMING

CITY           SKY/WX    TMP DP  RH WIND       PRES   REMARKS
LAS VEGAS, NV  MOSUNNY   78  28  16 SW17G23   29.78S
ELY            PTSUNNY   50  34  54 N5        29.94S
ELKO           PTSUNNY   52  39  61 W5        29.95S
POCATELLO, ID  CLOUDY    55  39  54 E13       29.86R
BURLEY         PTSUNNY   62  39  42 S8        29.82F
EVANSTON, WY   CLOUDY    45  34  65 SW26G37   29.98R
ROCK SPRINGS   CLOUDY    54  29  38 W14       29.91S
KEMMERER         N/A     46  36  66 NW14G21   29.96S

$$




USA.gov is the U.S. government's official web portal to all federal, state and local government web resources and services.